STARLINK-4273 (53181 NORAD) Tracking and Keplerian Element Data

This shows tracking and keplerian element data for the satellite.

Feedback or suggestion? Click here.




ElementValue
Catalog53181
NameSTARLINK-4273
Epoch Orbit130
Epoch Day269.91667824
Epoch Year2022
RAAN53.8291
Inclination53.2153
Eccentricity0.0004018
Argument of Perigee3.9819
Mean Anonmoly24.2536
Mean Motion15.73250912
Decay Rate-0.00119823
L11 53181U 22083BB 22269.91667824 -.00119823 00000+0 -85912-3 0 9990
L22 53181 53.2153 53.8291 0004018 3.9819 24.2536 15.73250912 1301

Live tracking and technical data element details for STARLINK-4273 (NORAD 53181). STARLINK-4273 can be tracked NOW for your location showing map with azimuth and elevation plus other details from your city location.

Track the satellite on the map from your city or location and see movement details for azimuth, elevation, latitude, longitude, range, height, and movement on the map or in text.







IsCatalogInMostPopularTable: catalog: 53181, numindb: 8
Update: records affected: 1



GetName: 53181 STARLINK-4273

Hit Count: updated at: Fri, 30 Sep 2022 03:48:46 GMT